Dewpoint
50 50 50 50 50 51 51 50 51 50 51 50 51 51 51 51 51 51 52 51 51 51 51 51 51 51 51 52 51 51 52 50 48 46 45 43 45 52 57 56 56 56 56 42 40 38 37 37 36 38 33 29 29 26 29 31 23 24 22 21 16 14 12 14 11 13 12 10 11 12 12 11 12 12 14 47 58 60 61 61 63 63 64 64 63 63 63 65
50 50 50 50 50 50 50 50 50 50 50 51 50 50 51 51 51 51 51 51 51 51 51 51 51 51 51 51 51 51 51 49 47 46 45 47 53 54 57 58 58 58 54 40 37 36 35 34 36 35 29 25 32 26 31 27 29 23 24 22 8 15 12 18 15 15 12 11 13 13 13 12 13 11 14 34 54 57 57 60 61 61 63 62 62 63 64 64
49 49 49 49 49 50 50 50 50 50 50 50 50 50 51 51 51 51 51 50 50 50 50 51 51 51 51 51 51 53 50 47 43 32 43 58 58 55 57 59 59 58 42 39 37 35 33 34 36 29 31 26 29 25 29 26 28 26 22 15 16 17 15 17 17 13 12 13 14 14 14 12 15 11 22 40 40 57 56 58 59 60 61 61 62 63 64 64
49 49 49 49 49 49 49 49 49 49 50 50 50 50 50 50 50 50 51 51 51 51 51 51 50 50 51 51 51 51 49 42 29 38 43 57 60 57 58 57 60 57 38 36 33 31 34 36 33 28 29 26 28 28 26 27 26 24 22 17 16 18 16 17 15 16 16 14 14 15 14 15 16 11 31 42 32 48 55 59 59 60 61 61 62 63 63 64
49 50 50 49 49 49 49 49 49 49 49 49 50 50 50 50 50 50 51 51 50 51 51 50 50 50 51 51 52 50 47 16 33 39 39 60 62 57 58 60 61 50 38 34 33 34 35 34 29 29 27 26 29 27 25 27 27 23 21 20 17 22 21 22 20 18 17 15 15 16 16 15 14 11 20 26 19 15 32 57 60 61 62 61 62 63 63 63
49 50 50 50 50 50 51 50 50 50 50 49 49 49 49 49 50 50 50 50 50 50 50 50 50 50 51 52 50 49 22 -5 24 25 54 63 60 58 61 61 57 37 31 30 31 33 33 33 27 19 22 26 27 21 26 27 23 19 22 23 25 24 22 22 21 22 19 20 19 18 16 13 11 10 9 10 19 26 53 56 58 61 62 62 62 63 63 63
49 49 50 50 51 51 51 51 50 50 50 50 50 50 50 50 50 50 51 50 50 50 50 50 50 50 51 51 50 34 20 14 30 31 63 63 60 60 59 54 49 33 30 29 30 29 32 31 25 23 21 25 28 26 28 27 27 22 18 26 25 23 23 22 23 23 22 20 19 17 14 11 10 7 20 17 33 48 56 61 59 62 63 63 62 63 63 63
48 49 49 49 50 50 51 50 50 50 50 50 50 50 50 50 50 50 50 50 50 49 50 50 50 50 51 49 33 23 19 16 20 26 63 62 58 60 53 42 35 30 28 28 28 29 30 26 21 27 19 10 20 25 27 26 25 24 22 24 24 24 25 24 23 21 20 19 18 15 11 9 8 7 9 6 19 50 62 62 61 63 62 63 63 63 63 63
48 48 48 49 49 49 50 50 50 50 50 50 50 50 50 50 49 49 49 50 49 49 49 50 50 50 51 44 23 3 5 16 21 44 60 57 56 55 49 44 37 30 28 27 28 29 25 25 24 22 8 15 25 23 27 25 23 25 25 26 25 24 25 24 22 20 18 16 13 9 8 7 6 8 9 7 16 58 63 63 63 62 62 62 62 63 63 62
48 48 48 48 49 49 49 50 50 50 50 51 51 50 50 49 49 49 50 50 49 49 49 50 50 49 49 43 24 1 8 17 53 58 57 55 53 49 44 46 36 30 28 25 26 28 24 25 22 26 23 24 26 23 26 24 18 25 25 25 24 23 21 18 15 13 11 9 10 8 8 7 7 6 3 44 61 62 63 62 62 61 62 62 62 63 63 62
48 48 49 48 48 49 49 49 50 50 50 51 50 50 50 49 49 49 49 49 49 48 49 49 49 49 45 42 13 1 14 48 52 55 53 51 47 43 43 43 36 34 31 25 23 28 27 27 28 27 24 19 25 23 25 24 21 20 18 14 13 12 12 12 11 11 10 10 10 8 6 6 7 5 4 13 62 62 61 61 61 61 62 62 62 63 63 61
48 48 48 49 48 48 48 49 49 49 50 50 50 49 49 49 49 49 49 49 49 49 48 49 47 47 47 36 24 5 19 50 51 52 50 46 42 40 43 43 37 35 31 28 25 24 26 27 27 24 10 24 19 20 21 23 18 19 16 14 12 12 11 13 10 10 10 11 8 8 6 5 6 4 8 25 61 61 61 60 60 61 61 61 62 63 63 61
48 48 48 48 48 48 48 49 49 50 50 50 49 49 49 49 49 49 49 50 49 48 48 49 47 48 45 24 17 26 36 46 43 45 49 38 35 43 41 42 38 35 33 30 29 27 24 26 27 24 25 22 22 19 16 19 18 16 13 12 12 11 12 10 13 10 7 9 8 8 8 8 6 7 9 25 61 61 59 59 60 61 61 61 63 63 62 61
48 48 48 48 48 48 48 49 49 49 50 49 49 49 49 49 49 49 49 49 49 48 49 50 47 42 40 20 17 27 32 34 37 35 40 39 34 34 41 38 39 34 31 27 25 27 24 25 26 25 25 23 22 23 20 15 14 15 14 11 14 13 12 11 12 11 11 10 8 7 9 6 6 9 12 41 61 60 58 59 60 60 61 61 62 62 61 60
48 48 48 48 48 48 48 49 49 49 49 49 49 49 49 49 49 50 50 49 48 48 48 51 49 45 39 31 36 37 47 40 34 31 34 34 32 31 39 35 37 35 29 27 23 26 24 24 23 24 23 24 21 20 19 16 15 14 12 13 13 12 13 11 16 16 8 9 9 5 12 6 7 7 9 51 60 60 57 58 58 60 60 61 62 62 61 60
48 48 48 47 48 48 48 49 49 49 49 49 49 48 49 49 50 50 48 48 49 50 49 44 46 42 32 23 30 45 44 35 33 40 37 31 30 25 36 34 31 30 29 27 24 23 23 22 20 22 22 21 20 19 18 17 16 14 13 20 13 14 11 9 10 11 10 9 11 7 5 7 8 12 21 52 59 59 58 58 58 60 60 60 63 62 61 61
48 48 48 48 48 48 48 49 49 48 49 48 48 48 49 50 50 50 49 49 50 50 48 44 45 48 18 18 29 29 30 35 38 45 43 37 32 31 31 30 29 28 28 24 23 23 21 17 24 21 24 20 17 18 19 19 19 16 16 14 16 11 11 9 10 11 12 12 9 11 9 9 10 10 20 46 59 59 57 57 58 59 60 60 62 62 61 61
47 47 47 48 48 48 48 48 48 48 48 48 48 48 47 50 51 51 50 49 48 48 48 49 46 32 14 26 17 24 34 34 36 43 43 42 35 31 31 29 25 25 23 22 21 17 21 21 23 18 24 24 21 19 19 16 19 18 18 17 16 15 14 10 8 8 12 13 11 14 12 11 10 12 10 23 53 58 57 57 58 58 59 60 60 62 61 60
47 47 47 47 47 47 48 48 48 48 48 48 48 48 50 50 47 48 47 48 42 33 23 35 29 5 -0 20 26 33 31 32 33 34 36 39 37 35 33 28 25 25 24 26 25 21 21 23 28 23 20 21 20 18 18 15 15 10 12 13 13 15 13 12 12 13 13 12 11 10 10 8 9 11 15 16 22 56 57 58 58 58 59 59 60 61 61 60
47 47 47 47 47 47 48 48 48 48 48 47 46 46 46 39 35 30 45 46 40 26 19 29 33 30 29 28 27 31 32 31 25 28 41 41 36 34 33 31 27 26 27 28 25 26 23 23 21 21 21 23 26 23 21 15 12 12 12 13 13 13 14 12 12 13 13 12 12 11 13 13 14 16 19 19 18 43 57 56 57 57 58 58 59 60 61 60
47 47 47 47 47 47 47 48 48 48 48 47 45 39 33 32 32 29 32 35 42 42 37 34 36 30 24 32 31 30 25 25 29 29 38 42 36 33 31 30 29 30 28 27 27 30 25 23 24 25 25 25 27 30 30 24 22 13 15 15 15 15 15 14 15 15 13 18 12 21 17 16 17 21 21 24 21 22 46 54 56 57 57 58 58 60 61 61
47 47 47 47 47 48 47 47 48 48 48 46 43 34 31 29 33 32 33 29 31 33 37 36 36 35 37 37 36 33 31 25 22 22 25 36 33 25 28 29 29 27 28 26 26 25 24 23 25 27 26 33 33 30 27 25 23 19 17 17 16 16 15 15 16 15 15 15 14 18 15 15 16 17 18 24 23 24 36 52 55 56 57 57 58 59 60 61
46 47 47 47 47 48 47 48 48 47 46 42 39 38 34 35 38 39 37 34 33 34 32 33 32 34 34 36 35 35 30 26 17 20 23 33 32 28 29 28 29 28 24 26 26 27 24 22 25 23 29 29 28 29 26 27 26 21 19 18 16 15 14 13 18 21 19 17 15 16 14 16 21 24 26 28 24 26 29 44 54 57 57 57 58 58 59 59
46 47 47 47 47 47 48 47 47 46 44 42 41 39 38 41 40 39 37 32 27 32 32 32 32 33 34 31 33 32 28 25 22 19 30 31 30 32 29 28 27 27 26 24 27 25 23 19 23 25 26 24 26 28 26 22 19 26 23 16 14 14 14 13 16 21 24 22 27 18 20 19 24 22 21 26 29 26 23 20 37 55 57 57 59 59 60 59
46 46 46 47 47 47 47 48 44 44 43 42 42 43 43 44 43 39 36 32 28 29 33 32 34 33 32 34 34 30 29 27 24 22 30 31 26 27 27 26 27 25 26 24 25 25 25 25 24 22 22 21 24 23 24 23 18 21 28 20 16 16 15 15 20 16 16 14 24 20 15 14 25 22 19 21 35 39 30 26 25 40 54 57 58 58 59 59
46 46 46 47 47 47 48 43 40 43 41 39 39 40 41 40 41 43 37 30 23 24 29 24 32 26 33 31 32 31 26 20 24 24 30 30 31 28 24 24 25 22 24 23 23 27 24 27 24 22 23 21 19 19 24 23 18 19 16 22 18 16 17 17 17 16 11 11 23 27 16 14 22 18 20 28 36 38 38 35 32 37 48 56 58 57 58 58
46 46 46 46 46 47 41 34 45 42 37 33 41 43 41 41 44 42 31 25 15 24 23 23 24 22 30 28 30 24 8 9 27 27 31 34 27 28 24 22 23 22 23 29 25 21 22 22 22 24 25 21 20 19 23 20 19 14 24 22 19 17 17 20 17 15 12 24 26 22 15 15 15 21 27 36 39 38 36 37 41 43 48 53 56 57 58 58
46 46 46 46 46 46 45 45 42 39 34 40 43 42 42 44 43 42 30 10 8 19 14 22 21 27 25 29 31 20 11 18 16 24 26 27 27 26 25 22 22 21 22 24 19 29 30 25 25 23 24 19 19 21 25 20 17 15 24 19 17 16 18 18 16 17 19 18 14 19 18 17 17 20 26 37 30 35 36 44 44 44 50 54 55 55 56 58
46 46 46 46 46 47 46 45 43 40 39 44 44 43 44 44 42 30 24 6 15 17 18 21 25 14 24 31 29 29 27 23 17 23 27 27 26 27 24 25 24 21 21 22 20 25 19 23 22 21 21 20 20 18 21 19 18 19 20 20 19 17 17 16 17 15 21 18 14 19 21 14 12 22 23 37 34 37 41 45 46 46 47 51 54 55 57 58
46 46 47 47 46 45 45 46 43 44 44 44 44 45 43 39 29 22 11 7 20 13 14 15 12 8 14 14 27 28 26 24 22 26 25 24 25 24 22 25 21 21 20 20 19 24 21 32 23 20 20 21 20 18 20 18 17 20 18 16 17 18 22 22 23 20 20 15 15 22 23 15 11 16 25 30 41 44 45 46 48 49 49 50 53 54 55 57
46 47 47 47 44 44 43 39 41 43 44 45 45 40 38 31 25 13 4 21 12 17 13 10 8 13 15 8 9 8 24 24 19 24 21 24 23 24 22 21 23 22 24 23 22 23 20 18 16 16 25 15 18 15 17 18 16 16 15 13 15 18 19 19 20 21 16 11 18 18 19 16 12 17 26 37 42 46 47 47 48 48 49 50 52 54 56 57
46 47 47 46 45 46 42 34 34 44 45 45 43 39 26 7 20 7 13 15 9 10 9 10 12 15 15 11 7 6 16 18 19 22 19 21 24 21 22 24 24 21 20 21 21 25 23 20 18 18 33 15 14 12 13 15 15 14 15 14 13 13 15 13 14 13 12 11 19 18 15 14 14 18 35 40 45 46 49 49 49 49 49 51 51 54 56 57
46 46 47 46 47 45 45 45 45 46 46 45 36 30 22 17 5 19 13 16 11 14 9 16 14 16 15 10 7 11 20 15 21 21 23 23 22 22 23 22 23 26 18 28 23 22 22 23 20 19 17 22 14 14 15 13 14 14 14 17 13 10 10 8 10 15 13 18 18 18 20 11 19 23 41 45 47 49 50 51 52 51 51 52 53 55 56 57
46 47 45 46 46 45 46 48 47 47 46 44 39 23 9 3 4 35 22 18 13 22 17 15 18 12 7 7 11 14 21 29 22 22 20 23 22 25 22 23 23 22 29 27 19 22 18 16 18 18 19 20 15 15 15 17 15 12 14 12 15 14 10 11 8 10 10 12 18 20 16 14 16 33 43 45 49 50 48 51 53 54 53 55 55 56 56 57
47 47 46 46 46 46 46 47 48 47 42 37 22 21 11 9 17 12 19 17 14 17 18 18 12 7 8 11 11 10 26 32 30 20 22 19 23 25 24 21 24 25 24 20 27 22 16 18 18 20 15 17 16 16 16 14 14 14 15 13 15 18 21 11 20 15 13 13 17 20 17 26 26 39 43 49 49 49 49 50 52 53 53 54 55 57 57 57
45 43 46 45 45 46 47 47 48 46 40 31 22 9 5 23 9 15 19 17 17 20 20 15 10 5 12 12 15 9 18 29 33 27 27 21 24 22 25 24 22 22 24 21 27 20 16 17 20 20 19 16 15 18 16 14 17 18 12 13 13 20 19 22 22 24 24 17 12 24 28 30 36 35 43 47 47 47 49 49 51 52 54 55 54 55 56 57
42 45 45 46 46 49 47 47 47 40 33 23 19 8 27 22 12 18 30 21 22 19 16 11 16 7 12 12 14 10 16 24 25 27 27 29 28 27 31 27 24 22 22 25 26 22 18 19 23 20 17 19 16 16 14 14 16 13 14 14 19 19 23 20 13 18 14 12 14 27 26 29 27 24 42 46 46 46 48 49 51 52 52 53 53 54 55 55
43 43 48 48 48 47 47 47 45 37 34 31 19 34 29 13 21 19 21 22 25 23 19 14 17 11 13 11 13 11 17 17 21 29 28 31 29 34 34 31 30 25 23 25 23 29 21 18 20 20 18 18 21 16 14 14 17 13 14 17 15 15 14 20 18 13 12 12 13 24 28 30 31 32 39 43 44 45 47 48 49 50 51 53 54 54 55 56
43 44 41 44 48 47 47 46 42 38 34 21 24 12 19 21 23 24 24 24 24 20 17 17 14 16 12 16 13 14 20 18 21 29 26 29 28 40 34 33 32 36 30 24 23 28 28 21 23 24 21 23 18 20 19 18 16 18 17 14 20 20 25 15 16 21 17 10 17 19 25 16 31 36 41 42 45 46 47 48 48 50 51 52 52 54 55 55
42 41 41 46 47 47 47 46 42 37 32 21 25 25 19 26 28 29 27 26 26 22 22 17 13 17 20 16 14 17 18 20 28 35 23 34 31 35 34 38 36 37 32 25 23 31 25 29 19 22 24 22 16 24 23 23 19 14 15 18 16 27 23 22 24 14 12 16 16 16 14 24 36 40 42 43 45 46 48 48 49 50 51 52 53 53 54 55
42 41 39 46 46 47 47 41 37 34 31 31 29 28 32 30 32 31 32 30 28 25 21 20 20 18 20 20 17 18 23 21 25 28 30 32 32 29 33 35 37 36 35 30 27 34 26 24 22 28 21 21 22 24 25 25 25 20 18 16 15 21 19 13 14 22 22 18 17 15 12 26 35 42 46 46 46 47 48 49 47 46 46 46 47 47 48 51
39 36 37 46 47 46 43 36 35 36 35 33 31 32 30 37 32 31 27 26 28 24 24 23 23 19 22 19 18 18 25 21 24 30 31 31 32 29 33 34 36 37 37 37 36 36 33 32 28 24 24 24 24 25 27 31 30 32 29 24 25 28 25 16 11 19 24 22 22 24 19 21 42 46 45 47 47 47 47 46 45 44 44 45 45 46 47 47
40 37 43 47 48 41 39 33 33 33 35 33 33 31 32 31 31 27 25 26 24 25 26 25 24 23 24 22 23 25 26 24 23 28 28 29 32 30 32 37 39 33 36 43 32 45 45 33 28 27 27 26 24 25 29 30 30 32 35 36 32 26 26 23 19 26 23 28 22 21 18 25 42 47 47 46 45 44 44 44 44 43 42 43 43 44 45 45
38 42 43 45 44 42 37 27 27 28 34 35 33 31 31 30 28 26 26 27 26 27 26 28 26 24 27 26 26 26 29 22 22 26 26 27 29 31 39 38 38 36 37 37 35 45 32 36 30 27 25 25 23 24 24 25 32 33 34 35 35 35 33 31 30 30 20 28 24 18 13 24 43 47 47 45 43 42 41 41 42 42 43 43 43 43 44 45
39 40 41 40 44 43 36 34 33 28 34 33 32 29 30 27 29 29 28 26 27 26 28 28 27 29 27 29 28 28 28 26 29 26 26 27 27 30 40 37 38 40 44 44 45 36 32 34 32 24 22 21 19 19 21 24 31 31 34 33 34 34 32 31 21 23 17 26 25 22 20 34 44 46 45 43 42 41 42 41 41 41 41 42 43 43 43 44
38 33 36 41 38 40 38 37 36 34 32 32 27 27 30 27 25 27 27 27 27 28 26 26 25 27 25 26 30 28 24 27 26 26 22 25 24 29 32 39 39 36 43 46 42 39 34 36 36 32 28 25 24 26 28 31 33 31 31 33 34 35 35 32 29 23 18 25 26 28 32 40 41 43 43 43 42 40 40 40 40 40 41 42 42 42 43 43
38 34 28 35 36 37 35 33 33 32 30 33 26 27 26 28 28 28 28 27 29 27 28 25 24 26 26 27 29 28 24 24 22 25 23 20 21 25 28 32 40 41 43 42 42 36 38 32 35 36 35 34 35 32 34 33 31 31 32 33 34 36 37 31 24 21 32 26 19 35 38 40 41 42 41 41 40 39 39 39 39 40 40 41 42 43 42 42
31 31 34 37 34 31 32 30 33 33 33 27 27 29 27 27 28 28 27 28 30 29 25 24 24 24 24 24 26 25 24 24 24 23 24 19 24 28 29 33 30 34 40 37 40 39 38 30 33 36 34 35 36 34 33 32 31 30 31 34 35 36 39 37 35 34 33 23 21 35 39 39 41 41 41 39 38 38 37 37 38 40 40 40 41 41 41 42
35 34 35 36 28 28 32 30 34 33 32 31 30 29 30 28 26 25 27 29 27 29 25 24 26 24 25 26 25 21 26 23 23 26 26 22 23 29 31 32 32 32 29 40 38 40 36 33 31 36 34 34 35 34 35 34 32 30 32 33 34 36 37 37 37 37 34 36 36 40 39 38 39 39 37 37 37 36 36 37 38 38 39 39 39 39 40 41
35 34 34 33 36 34 34 32 32 30 27 29 23 26 25 28 26 27 27 28 26 24 27 26 24 25 27 25 25 23 21 25 22 22 25 23 26 32 33 35 38 36 28 37 40 38 35 31 37 38 35 34 36 35 34 32 32 30 32 33 34 34 36 36 37 38 40 40 40 39 38 36 36 36 35 36 36 36 36 36 37 38 38 38 38 39 39 41
37 39 39 31 30 30 34 30 29 30 25 27 27 26 28 27 27 26 27 27 25 26 27 25 26 30 27 23 27 25 23 25 24 25 28 23 23 27 25 31 27 24 23 37 40 40 41 33 36 36 30 31 36 35 35 34 30 31 32 33 33 33 34 35 34 37 36 37 38 38 36 34 36 35 36 36 36 35 35 35 36 37 38 38 38 39 39 40
39 39 36 34 28 29 26 27 26 25 19 25 26 28 28 26 28 28 23 21 26 26 28 27 29 25 26 26 23 24 24 25 24 23 23 23 22 20 21 21 22 21 26 34 39 39 40 37 31 31 29 29 34 35 34 35 33 29 29 32 33 34 35 36 36 37 38 39 38 35 36 35 34 36 36 36 35 35 36 36 36 37 37 37 38 38 39 40